Location: Newark
(34.4697°S, 57.8467°W)
Time: 20:41:10
(UTC+00:00)

N. Korean satellite - Pass Details

Date: 19 July 2019
Orbit: 457 x 507 km, 97.2° (Epoch: 24 August)

Event Time Altitude Azimuth Distance (km) Brightness Sun altitude
Rises 21:28:21 0° 162° (SSE) 2,532 9.8 -5.9°
Reaches altitude 10° 21:30:30 10° 154° (SSE) 1,640 8.8 -6.3°
Maximum altitude 21:33:52 43° 81° (E) 666 6.9 -6.9°
Drops below altitude 10° 21:37:09 10° 8° (N) 1,604 9.4 -7.6°
Sets 21:39:14 0° 1° (N) 2,467 10.4 -8.0°
